| time (UTC) | temp F | wind direction | speed MPH | gust MPH | rain 1hr in | rain 24hr in | rain mn in | humidity % | barometer mb |
| 20260506023058 | 77 | 150 | 0.0 | 7.0 | 0.00 | 0.00 | 0.00 | 92 | 1008.7 |
| 20260506021605 | 78 | 0 | 1.0 | 4.0 | 0.00 | 0.00 | 0.00 | 92 | 1008.3 |
| 20260506020051 | 78 | 176 | 0.0 | 5.0 | 0.00 | 0.00 | 0.00 | 91 | 1008.1 |
| 20260506014552 | 78 | 197 | 0.0 | 4.0 | 0.00 | 0.00 | 0.00 | 91 | 1008.0 |
| 20260506013059 | 78 | 172 | 0.0 | 5.0 | 0.00 | 0.00 | 0.00 | 90 | 1007.6 |
| 20260506011552 | 78 | 200 | 1.0 | 6.0 | 0.00 | 0.00 | 0.00 | 89 | 1007.3 |
| 20260506010115 | 79 | 170 | 1.0 | 6.0 | 0.00 | 0.00 | 0.00 | 89 | 1007.3 |
| 20260506004553 | 79 | 195 | 1.0 | 6.0 | 0.00 | 0.00 | 0.00 | 88 | 1007.1 |
| 20260506003055 | 79 | 151 | 0.0 | 6.0 | 0.00 | 0.00 | 0.00 | 87 | 1006.9 |
| 20260506001558 | 80 | 164 | 1.0 | 6.0 | 0.00 | 0.00 | 0.00 | 86 | 1007.0 |
| 20260506000057 | 80 | 0 | 1.0 | 7.0 | 0.00 | 0.00 | 0.00 | 86 | 1007.0 |
| 20260505234608 | 80 | 238 | 2.0 | 11.0 | 0.00 | 0.00 | 0.00 | 85 | 1006.9 |
| 20260505233057 | 81 | 164 | 2.0 | 7.0 | 0.00 | 0.00 | 0.00 | 86 | 1006.8 |
| 20260505231553 | 81 | 150 | 3.0 | 8.0 | 0.00 | 0.00 | 0.00 | 85 | 1006.9 |
| 20260505230053 | 81 | 134 | 2.0 | 11.0 | 0.00 | 0.00 | 0.00 | 84 | 1006.9 |
| 20260505224551 | 82 | 124 | 3.0 | 10.0 | 0.00 | 0.00 | 0.00 | 84 | 1006.8 |
| 20260505223053 | 83 | 196 | 1.0 | 11.0 | 0.00 | 0.00 | 0.00 | 81 | 1007.0 |
| 20260505221550 | 83 | 246 | 2.0 | 10.0 | 0.00 | 0.00 | 0.00 | 81 | 1007.0 |
| 20260505220056 | 82 | 183 | 2.0 | 8.0 | 0.00 | 0.00 | 0.00 | 81 | 1007.2 |
| 20260505214604 | 83 | 140 | 2.0 | 8.0 | 0.00 | 0.00 | 0.00 | 81 | 1007.4 |
| 20260505213058 | 83 | 127 | 2.0 | 9.0 | 0.00 | 0.00 | 0.00 | 81 | 1007.4 |
| 20260505211550 | 83 | 143 | 0.0 | 10.0 | 0.00 | 0.00 | 0.00 | 82 | 1007.7 |
| 20260505210057 | 83 | 189 | 2.0 | 8.0 | 0.00 | 0.00 | 0.00 | 82 | 1008.0 |
| 20260505204557 | 83 | 259 | 1.0 | 9.0 | 0.00 | 0.00 | 0.00 | 81 | 1008.2 |
| 20260505203055 | 83 | 113 | 2.0 | 9.0 | 0.00 | 0.00 | 0.00 | 80 | 1008.3 |
| 20260505201553 | 83 | 224 | 1.0 | 7.0 | 0.00 | 0.00 | 0.00 | 81 | 1008.6 |
| 20260505194605 | 84 | 146 | 0.0 | 7.0 | 0.00 | 0.00 | 0.00 | 81 | 1009.0 |
| 20260505193052 | 83 | 82 | 0.0 | 6.0 | 0.00 | 0.00 | 0.00 | 84 | 1009.3 |
| 20260505191550 | 82 | 204 | 0.0 | 9.0 | 0.00 | 0.00 | 0.00 | 85 | 1009.3 |
| 20260505190052 | 81 | 238 | 0.0 | 8.0 | 0.00 | 0.00 | 0.00 | 84 | 1009.2 |
| 20260505184551 | 82 | 144 | 1.0 | 6.0 | 0.00 | 0.00 | 0.00 | 84 | 1009.3 |
| 20260505183055 | 82 | 344 | 2.0 | 7.0 | 0.00 | 0.00 | 0.00 | 84 | 1009.4 |
| 20260505181550 | 81 | 0 | 1.0 | 8.0 | 0.00 | 0.00 | 0.00 | 85 | 1009.6 |
| 20260505180107 | 81 | 96 | 1.0 | 8.0 | 0.00 | 0.00 | 0.00 | 85 | 1009.8 |
| 20260505174602 | 81 | 210 | 2.0 | 5.0 | 0.00 | 0.00 | 0.00 | 85 | 1009.9 |
| 20260505173048 | 80 | 204 | 0.0 | 7.0 | 0.00 | 0.00 | 0.00 | 87 | 1010.0 |
| 20260505171547 | 80 | 311 | 1.0 | 7.0 | 0.00 | 0.00 | 0.00 | 87 | 1009.9 |
| 20260505170051 | 80 | 205 | 1.0 | 5.0 | 0.00 | 0.00 | 0.00 | 87 | 1009.9 |
| 20260505164552 | 80 | 217 | 1.0 | 6.0 | 0.00 | 0.00 | 0.00 | 88 | 1010.0 |
| 20260505163055 | 79 | 194 | 2.0 | 7.0 | 0.00 | 0.00 | 0.00 | 88 | 1010.0 |
| 20260505161607 | 79 | 217 | 1.0 | 7.0 | 0.00 | 0.00 | 0.00 | 89 | 1009.9 |
| 20260505153052 | 77 | 76 | 2.0 | 7.0 | 0.00 | 0.00 | 0.00 | 93 | 1009.7 |
| 20260505151552 | 76 | 185 | 1.0 | 6.0 | 0.00 | 0.00 | 0.00 | 94 | 1009.7 |
| 20260505140107 | 74 | 115 | 1.0 | 4.0 | 0.00 | 0.00 | 0.00 | 97 | 1009.5 |
| 20260505124550 | 71 | 0 | 1.0 | 4.0 | 0.00 | 0.00 | 0.00 | 100 | 1009.6 |
| 20260505123102 | 71 | 0 | 0.0 | 3.0 | 0.00 | 0.00 | 0.00 | 100 | 1009.3 |
| 20260505121549 | 0 | 0.0 | 0.0 | 0.00 | 0.00 | 0.00 | 1009.1 | ||
| 20260505120053 | 0 | 0.0 | 0.0 | 0.00 | 0.00 | 0.00 | 1008.9 | ||
| 20260505114552 | 0 | 0.0 | 0.0 | 0.00 | 0.00 | 0.00 | 100 | 1008.6 | |
| 20260505113110 | 69 | 0 | 0.0 | 1.0 | 0.00 | 0.00 | 0.00 | 100 | 1009.0 |
| 20260505111552 | 69 | 0 | 0.0 | 3.0 | 0.00 | 0.00 | 0.00 | 100 | 1008.8 |
| 20260505101600 | 68 | 0 | 0.0 | 1.0 | 0.00 | 0.00 | 0.00 | 99 | 1008.9 |
| 20260505100053 | 68 | 203 | 0.0 | 2.0 | 0.00 | 0.00 | 0.00 | 99 | 1008.8 |
| 20260505094557 | 68 | 0 | 0.0 | 2.0 | 0.00 | 0.00 | 0.00 | 99 | 1009.1 |
| 20260505093057 | 68 | 149 | 0.0 | 2.0 | 0.00 | 0.00 | 0.00 | 99 | 1008.9 |
| 20260505091608 | 68 | 0 | 0.0 | 2.0 | 0.00 | 0.00 | 0.00 | 99 | 1009.1 |
| 20260505090053 | 68 | 0 | 0.0 | 2.0 | 0.00 | 0.00 | 0.00 | 98 | 1009.3 |
| 20260505084551 | 67 | 0 | 0.0 | 1.0 | 0.00 | 0.00 | 0.00 | 98 | 1009.3 |
| 20260505083100 | 68 | 0 | 0.0 | 0.0 | 0.00 | 0.00 | 0.00 | 98 | 1009.6 |
| 20260505081559 | 68 | 0 | 0.0 | 0.0 | 0.00 | 0.00 | 0.00 | 97 | 1009.7 |
| 20260505080105 | 68 | 0 | 0.0 | 0.0 | 0.00 | 0.00 | 0.00 | 97 | 1009.6 |
| 20260505074607 | 68 | 108 | 0.0 | 2.0 | 0.00 | 0.00 | 0.00 | 97 | 1009.6 |
| 20260505073053 | 68 | 0 | 0.0 | 2.0 | 0.00 | 0.00 | 0.00 | 96 | 1009.8 |
| 20260505071555 | 68 | 0 | 0.0 | 2.0 | 0.00 | 0.00 | 0.00 | 96 | 1010.0 |
| 20260505070051 | 68 | 0 | 0.0 | 1.0 | 0.00 | 0.00 | 0.00 | 96 | 1010.2 |
| 20260505064550 | 68 | 0 | 0.0 | 3.0 | 0.00 | 0.00 | 0.00 | 95 | 1010.3 |
| 20260505063105 | 68 | 0 | 0.0 | 3.0 | 0.00 | 0.00 | 0.00 | 95 | 1010.4 |
| 20260505061620 | 68 | 182 | 0.0 | 4.0 | 0.00 | 0.00 | 0.00 | 94 | 1010.5 |
| 20260505060103 | 69 | 0 | 0.0 | 3.0 | 0.00 | 0.00 | 0.00 | 94 | 1010.7 |
| 20260505054554 | 69 | 117 | 0.0 | 4.0 | 0.00 | 0.00 | 0.00 | 93 | 1010.8 |
| 20260505053052 | 69 | 182 | 0.0 | 4.0 | 0.00 | 0.00 | 0.00 | 93 | 1010.8 |
| 20260505051610 | 69 | 101 | 0.0 | 2.0 | 0.00 | 0.00 | 0.00 | 93 | 1011.1 |
| 20260505041552 | 70 | 142 | 2.0 | 6.0 | 0.00 | 0.00 | 0.00 | 89 | 1011.1 |
| 20260505040057 | 70 | 202 | 1.0 | 6.0 | 0.00 | 0.00 | 0.00 | 89 | 1011.3 |
| 20260505034552 | 71 | 164 | 1.0 | 5.0 | 0.00 | 0.00 | 0.00 | 88 | 1011.2 |
| 20260505033053 | 71 | 148 | 1.0 | 6.0 | 0.00 | 0.00 | 0.00 | 87 | 1011.4 |
| 20260505031556 | 71 | 131 | 0.0 | 7.0 | 0.00 | 0.00 | 0.00 | 87 | 1011.4 |
| 20260505030100 | 71 | 174 | 1.0 | 5.0 | 0.00 | 0.00 | 0.00 | 87 | 1011.4 |
| 20260505024554 | 71 | 172 | 0.0 | 4.0 | 0.00 | 0.00 | 0.00 | 86 | 1011.4 |